Find Yaogan Weixing 25 fu xing er

NORAD ID: 40340 Int'l Des: 2014-080 Owner: ZZB Country: CN Constellation: yaogan operational
LEO

Live Position

Loading 3D Globe...

About Yaogan Weixing 25 fu xing er

Description loading...

Upcoming Passes

Passes for default location (London). Set your location on the main map for personalized predictions.

Altitude History

Loading altitude history...

Two-Line Element Set

1 40340U 14080C 26110.60514921 -.00000129 00000-0 -43452-4 0 9998
2 40340 63.3848 99.6349 0361913 9.3220 351.4290 13.45342962558005
Epoch: Apr 20, 2026 • Age: 10 hours

Current Status

Altitude 1104.3 km
Velocity 7.30 km/s
Sub-Earth Point -62.16°S, 166.07°E
Launch Date Dec 10, 2014
Age 11.3 years
Type military

Technical Details

Classification Payload
Mass 500.00 kg
Dry Mass 500.00 kg
Total Mass 500.00 kg
Length 0.50 m
Diameter 0.50 m
Span 1.00 m
Shape Box + 2 Pan
Manufacturer CAST
Phase Status In Orbit
Owner/State ZZB/CN

Most Searched